This demonstration page uses our WeatherBlox Daily Observations layout. Learn more.

Left ArrowRight Arrow

39.01783, -85.05884

Hourly Observations for August 27, 2020

Temp ( °F °C ) Dew Point ( °F °C ) Humidity (%) Winds ( mph kmh ) Pressure ( in mb ) Visibility ( mi km ) Precip ( " mm )
12:52 am 00:52 Clear 76 24.4 71 21.7 85 85 SW 7 11 29.97 1015 10 16.0934 0 0
1:52 am 01:52 Clear 76 24.4 71 21.7 85 85 SW 7 11 29.96 1015 10 16.0934 0 0
2:52 am 02:52 Mostly Clear 75 23.9 71 21.7 88 88 SSW 7 11 29.95 1014 10 16.0934 0 0
3:52 am 03:52 Mostly Clear 75 23.9 70 21.1 84 84 SW 7 11 29.96 1015 10 16.0934 0 0
4:52 am 04:52 Mostly Clear 74 23.3 70 21.1 88 88 SW 3 6 29.96 1015 10 16.0934 0 0
5:52 am 05:52 Mostly Cloudy 73 22.8 70 21.1 90 90 SSW 3 6 29.96 1015 10 16.0934 0 0
6:52 am 06:52 Mostly Cloudy 73 22.8 69 20.6 87 87 SW 3 6 29.96 1015 10 16.0934 0 0
7:52 am 07:52 Cloudy 74 23.3 70 21.1 88 88 SSW 6 9 29.97 1015 10 16.0934 0 0
8:52 am 08:52 Cloudy 75 23.9 71 21.7 88 88 SW 5 7 29.98 1015 10 16.0934 0 0
9:52 am 09:52 Cloudy 76 24.4 72 22.2 88 88 SW 9 15 30 1016 10 16.0934 0 0
10:52 am 10:52 Cloudy 79 26.1 72 22.2 79 79 SW 9 15 30 1016 10 16.0934 0 0
11:52 am 11:52 Cloudy 82 27.8 72 22.2 72 72 SW 10 17 29.99 1016 10 16.0934 0 0
12:52 pm 12:52 Mostly Cloudy 84 28.9 71 21.7 65 65 WSW 12 19 29.99 1016 10 16.0934 0 0
1:52 pm 13:52 Cloudy with Nearby Thunderstorms 82 27.8 71 21.7 69 69 SW 13 20 29.98 1015 10 16.0934 0.001 0.001
2:16 pm 14:16 Cloudy 81 27.2 70 21.1 69 69 WSW 13 20 29.98 1015 10 16.0934 0 0
2:52 pm 14:52 Cloudy with Light Rain 77 25 70 21.1 79 79 WSW 6 9 29.98 1015 10 16.0934 0.001 0.001
3:52 pm 15:52 Cloudy 80 26.7 71 21.7 74 74 SW 6 9 29.96 1015 10 16.0934 0.001 0.001
5:52 pm 17:52 Cloudy 82 27.8 73 22.8 74 74 SSW 6 9 29.93 1014 10 16.0934 0 0
6:52 pm 18:52 Cloudy 81 27.2 73 22.8 77 77 SSW 6 9 29.94 1014 10 16.0934 0 0
7:52 pm 19:52 Cloudy 80 26.7 73 22.8 79 79 SSW 3 6 29.93 1014 10 16.0934 0 0
8:52 pm 20:52 Cloudy 78 25.6 73 22.8 85 85 SSW 3 6 29.92 1013 10 16.0934 0 0
9:52 pm 21:52 Cloudy 78 25.6 73 22.8 85 85 S 6 9 29.93 1014 10 16.0934 0 0
10:52 pm 22:52 Cloudy 77 25 74 23.3 90 90 S 6 9 29.94 1014 10 16.0934 0 0
11:52 pm 23:52 Cloudy 78 25.6 74 23.3 87 87 SSW 7 11 29.95 1014 10 16.0934 0 0

Powered by AerisWeather